Regional Weather Roundup
Issued by NWS

Home | Current Version | Previous Version | Graphics & Text | Print | Product List | Glossary On
Versions: 1 2 3 4 5 6 7 8 9 10 11 12 13 14 15 16 17 18 19 20 21 22 23 24 25 26 27 28 29 30 31 32 33 34 35 36 37 38 39 40 41 42 43 44 45 46 47 48 49 50
154
ASUS43 KIND 091709
RWRIN

WEATHER ROUNDUP FOR INDIANA
NATIONAL WEATHER SERVICE INDIANAPOLIS IN
1200 PM EST TUE FEB 09 2016

NOTE: "FAIR" INDICATES FEW OR NO CLOUDS BELOW 12,000 FEET WITH NO
SIGNIFICANT WEATHER AND/OR OBSTRUCTIONS TO VISIBILITY.

* - STATION DOES NOT REPORT WEATHER SUCH AS PRECIPITATION OR FOG.

+ - STATION NOT QUALITY CONTROLLED BY THE NATIONAL WEATHER SERVICE.
    USE DATA WITH CAUTION...ESPECIALLY DEWPOINT AND RELATIVE
    HUMIDITY OBSERVATIONS.

INZ001>003-010>013-019-020-091800-
NORTHWEST INDIANA

CITY           SKY/WX    TMP DP  RH WIND       PRES   REMARKS
GARY /AIRPORT/ LGT SNOW  21  12  68 W12       29.84R WCI   9
KNOX *+        CLOUDY    23  18  80 NW18G26   29.77R WCI   9
LA PORTE +     LGT SNOW  24  21  89 NW15G22   29.77R WCI  11
MICHIGAN CITY+ LGT SNOW  23  19  86 NW7G18    29.79R WCI  15
MONTICELLO +   FLURRIES  21  13  72 NW16      29.80R WCI   7
RENSSELAER +   LGT SNOW  21  14  73 W15       29.82R WCI   8
VALPARAISO     LGT SNOW  20  14  77 MISG      29.79R

$$

LMZ046-743>745-091800-
SOUTHERN LAKE MICHIGAN

STATION/POSITION TIME  TEMP    WIND        PRES    WAVE
                       AIR SEA DIR/SP/G            HT
                 (UTC) (F)     (DEG/KT/KT) (MB)    (FT)
BURNS HARBOR     1621   20     320/ 16     1009.5R
MICHIGAN CITY    1600   22     290/ 21/ 24   N/A

$$

INZ004-005-014>016-021>024-091800-
NORTH CENTRAL INDIANA

CITY           SKY/WX    TMP DP  RH WIND       PRES   REMARKS
ELKHART        CLOUDY    27  19  74 NW14      29.72S WCI  15
GOSHEN         CLOUDY    28  20  71 NW15      29.70R WCI  16
LOGANSPORT +   FLURRIES  23  14  68 W13       29.78S WCI  11
PERU/GRISSOM   LGT SNOW  21  18  86 W17       29.74S WCI   7
ROCHESTER +    LGT SNOW  27  18  69 W9G20     29.74S WCI  17
SOUTH BEND     LGT SNOW  24  20  84 NW13      29.74S FOG     WCI  12
WARSAW +       CLOUDY    28  21  74 NW16G23   29.71R WCI  17

$$

INZ006>009-017-018-025>027-091800-
NORTHEAST INDIANA

CITY           SKY/WX    TMP DP  RH WIND       PRES   REMARKS
ANGOLA *+      CLOUDY    27  21  80 NW10      29.65S WCI  17
AUBURN +       CLOUDY    30  23  74 W10       29.68S WCI  21
FORT WAYNE     FLURRIES  27  20  75 W16       29.70S WCI  15
HUNTINGTON +   CLOUDY    23  15  73 W12G24    29.72R WCI  11

$$

INZ028-029-035-036-043>045-051>053-091800-
WEST CENTRAL INDIANA

CITY           SKY/WX    TMP DP  RH WIND       PRES   REMARKS
GREENCASTLE +  LGT SNOW  21  10  63 W7G16     29.83R WCI  13
LAFAYETTE      LGT SNOW  21  15  78 W14       29.82R WCI   8
TERRE HAUTE    CLOUDY    20  11  68 NW16      29.87R WCI   6

$$

INZ030>032-037>040-046>048-054>057-064-065-091800-
CENTRAL INDIANA

CITY           SKY/WX    TMP DP  RH WIND       PRES   REMARKS
ANDERSON       LGT SNOW  21  18  86 W12G23    29.76S WCI   9
COLUMBUS       FLURRIES  21  18  86 W12       29.83S WCI   9
FISHERS *+     CLOUDY    23  19  86 W16       29.79R WCI  10
FRANKFORT +    LGT SNOW  24  13  64 W15       29.80S WCI  11
GREENWOOD *+   CLOUDY    23  18  80 W15       29.80S WCI  10
INDIANAPOLIS   FLURRIES  23  15  71 W17       29.80R WCI   9
-EAGLE CREEK   LGT SNOW  22  16  78 W16       29.79R WCI   8
KOKOMO *+      CLOUDY    21  16  79 W16       29.76R VSB 3/4 WCI   7
MARION +       CLOUDY    22  13  69 W17       29.75R HAZE    WCI   7
MT COMFORT *+  CLOUDY    23  16  74 W16       29.78S WCI  10
SHELBYVILLE    LGT SNOW  23  16  74 W13       29.79R WCI  11
ZIONSVILLE +   LGT SNOW  21  16  80 W14G21    29.79R WCI   8

$$

INZ033-034-041-042-049-050-058-059-091800-
EAST CENTRAL INDIANA

CITY           SKY/WX    TMP DP  RH WIND       PRES   REMARKS
MUNCIE         CLOUDY    23  16  74 W17       29.74R WCI   9

$$

INZ060-061-067>069-081>083-085>088-091800-
SOUTHWEST INDIANA

CITY           SKY/WX    TMP DP  RH WIND       PRES   REMARKS
EVANSVILLE     CLOUDY    24  13  62 NW12G20   29.94R WCI  13
HUNTINGBURG *+ CLOUDY    23  14  68 W12       29.90S WCI  12
WASHINGTON +   LGT SNOW  22  14  72 NW13G18   29.90R WCI  10

$$

INZ062-063-066-070>080-084-089>092-091800-
SOUTH CENTRAL AND SOUTHEAST INDIANA

CITY           SKY/WX    TMP DP  RH WIND       PRES   REMARKS
BEDFORD +      FLURRIES  21  16  79 W8        29.85R WCI  12
BLOOMINGTON    LGT SNOW  21  15  78 W8        29.83R WCI  11
MADISON *+     CLOUDY    25  18  74 W8G16     29.83S WCI  16
NORTH VERNON + LGT SNOW  23  18  80 SW9       29.82R WCI  13
SEYMOUR +      FLURRIES  25  18  74 W15       29.84R WCI  12

$$





USA.gov is the U.S. government's official web portal to all federal, state and local government web resources and services.